Location: Siratepeler Tepesi
(39.1042°N, 32.0781°E)
Time: 06:13:45
(UTC+00:00)

USA 229 - Pass Details

Date: 11 April 2026
Orbit: 843 x 1365 km, 63.4° (Epoch: 10 January)

Event Time Altitude Azimuth Distance (km) Brightness Sun altitude
Rises 16:37:59 0° 226° (SW) 3,431 6.9 -3.3°
Reaches altitude 10° 16:40:25 10° 231° (SW) 2,533 6.3 -3.7°
Maximum altitude 16:46:09 55° 309° (NW) 1,122 4.3 -4.8°
Drops below altitude 10° 16:52:34 10° 27° (NNE) 2,830 5.8 -6.0°
Sets 16:55:26 0° 31° (NNE) 3,869 6.5 -6.6°
